Weather History for KGAD - September, 2011

Change the Weather History Date:

Thursday, September 29, 2011

  Actual Average Record
Temperature  
Mean Temperature 56 °F -  
Max Temperature 59 °F 77 °F 97 °F (1941)
Min Temperature 53 °F 53 °F 35 °F (2004)
Degree Days  
Heating Degree Days 9    
Growing Degree Days 6 (Base 50)    
Moisture  
Dew Point 54 °F    
Average Humidity 92    
Maximum Humidity 94    
Minimum Humidity 88    
Precipitation  
Precipitation 0.00 in - - ()
Sea Level Pressure  
Sea Level Pressure 29.91 in    
Wind  
Wind Speed 0 mph (North)    
Max Wind Speed 0 mph    
Max Gust Speed -    
Visibility 10 miles    
Events      
Averages and records for this station are not official NWS values.
T = Trace of Precipitation, MM = Missing Value Source: NWS Daily Summary

Daily Weather History Graph

Daily Weather History Graph

Search for Another Location

Airport or City:

Trip Planner

Search our weather history database for the weather conditions in past years. The results will help you decide how hot, cold, wet, or windy it might be!

Date:

Astronomy

Sep. 29, 2011 Rise Set
Actual Time 6:37 AM CDT 6:31 PM CDT
Civil Twilight 6:12 AM CDT 6:56 PM CDT
Nautical Twilight 5:43 AM CDT 7:25 PM CDT
Astronomical Twilight 5:14 AM CDT 7:54 PM CDT
Moon 9:10 AM CDT (9/29) 7:56 PM CDT (9/29)
Length of Visible Light 12h 44m
Length of Day
11h 54m
Waxing Crescent, 7% of the Moon is Illuminated
Sep 29
Waxing Crescent
Oct 3
First Quarter
Oct 11
Full
Oct 19
Last Quarter
Oct 26
New

Hourly Weather History & Observations

Time (CDT) Temp. Dew Point Humidity Pressure Visibility Wind Dir Wind Speed Gust Speed Precip Events Conditions
12:15 AM 59.0 °F 57.2 °F 94% 29.89 in 10.0 mi Calm Calm - N/A   Clear
12:35 AM 59.0 °F 55.4 °F 88% 29.90 in 10.0 mi Calm Calm - N/A   Clear
12:55 AM 57.2 °F 55.4 °F 94% 29.90 in 10.0 mi Calm Calm - N/A   Clear
1:15 AM 57.2 °F 55.4 °F 94% 29.90 in 10.0 mi Calm Calm - N/A   Clear
1:35 AM 57.2 °F 55.4 °F 94% 29.90 in 10.0 mi Calm Calm - N/A   Clear
1:55 AM 57.2 °F 55.4 °F 94% 29.91 in 10.0 mi Calm Calm - N/A   Clear
2:15 AM 57.2 °F 55.4 °F 94% 29.90 in 10.0 mi Calm Calm - N/A   Clear
2:35 AM 57.2 °F 53.6 °F 88% 29.90 in 10.0 mi Calm Calm - N/A   Clear
2:55 AM 57.2 °F 53.6 °F 88% 29.90 in 10.0 mi Calm Calm - N/A   Clear
3:15 AM 55.4 °F 53.6 °F 94% 29.90 in 10.0 mi Calm Calm - N/A   Clear
3:35 AM 55.4 °F 53.6 °F 94% 29.89 in 8.0 mi Calm Calm - N/A   Clear
3:55 AM 55.4 °F 53.6 °F 94% 29.90 in 10.0 mi Calm Calm - N/A   Clear
4:15 AM 55.4 °F 51.8 °F 88% 29.90 in 10.0 mi Calm Calm - N/A   Clear
4:35 AM 55.4 °F 51.8 °F 88% 29.90 in 10.0 mi Calm Calm - N/A   Clear
4:55 AM 55.4 °F 53.6 °F 94% 29.90 in 10.0 mi Calm Calm - N/A   Clear
5:15 AM 55.4 °F 53.6 °F 94% 29.91 in 10.0 mi Calm Calm - N/A   Clear
5:35 AM 53.6 °F 51.8 °F 94% 29.91 in 10.0 mi Calm Calm - N/A   Clear
5:55 AM 53.6 °F 51.8 °F 94% 29.92 in 10.0 mi Calm Calm - N/A   Clear
6:15 AM 55.4 °F 51.8 °F 88% 29.92 in 8.0 mi Calm Calm - N/A   Clear
6:35 AM 53.6 °F 51.8 °F 94% 29.93 in 10.0 mi Calm Calm - N/A   Clear
6:55 AM 53.6 °F 51.8 °F 94% 29.93 in 10.0 mi Calm Calm - N/A   Clear